Regional Weather Roundup
Issued by NWS

Home | Current Version | Previous Version | Graphics & Text | Print | Product List | Glossary On
Versions: 1 2 3 4 5 6 7 8 9 10 11 12 13 14 15 16 17 18 19 20 21 22 23 24 25 26 27 28 29 30 31 32 33 34 35 36 37 38 39 40 41 42 43 44 45 46 47 48 49 50
000
ASUS43 KOAX 191202
RWRNE

WEATHER ROUNDUP FOR NEBRASKA
NATIONAL WEATHER SERVICE OMAHA NE
700 AM CDT SAT APR 19 2014

NOTES: SATELLITE DATA IS BEING USED TO AUGMENT CLOUD COVER ABOVE
       12000 FEET.
       "FAIR" INDICATES FEW OR NO CLOUDS BELOW 12,000 FEET WITH NO
       SIGNIFICANT WEATHER AND/OR OBSTRUCTIONS TO VISIBILITY.

  * THESE STATIONS DO NOT REPORT WEATHER SUCH AS RAIN...SNOW OR FOG.

NEZ001>004-019>022-054>056-191300-
NEBRASKA PANHANDLE

CITY           SKY/WX    TMP DP  RH WIND       PRES   REMARKS
SCOTTSBLUFF    CLOUDY    47  38  71 VRB5      30.00R
6HR MIN TEMP:  47; 6HR MAX TEMP:  60;

ALLIANCE       CLOUDY    42  36  79 N9        29.98R
6HR MIN TEMP:  42; 6HR MAX TEMP:  59;

CHADRON        CLOUDY    43  36  76 W5        29.99R
6HR MIN TEMP:  41; 6HR MAX TEMP:  62;

KIMBALL        CLOUDY    49  34  56 N15       29.96R
SIDNEY         CLOUDY    52  35  52 N17       29.94R
6HR MIN TEMP:  51; 6HR MAX TEMP:  61;

$$

NEZ057>060-069>072-079>082-191300-
SOUTHWEST NEBRASKA

CITY           SKY/WX    TMP DP  RH WIND       PRES   REMARKS
NORTH PLATTE   CLOUDY    50  43  77 E6        29.92R
6HR MIN TEMP:  50; 6HR MAX TEMP:  59;

IMPERIAL       CLOUDY    47  41  80 SE6       29.87R
6HR MIN TEMP:  46; 6HR MAX TEMP:  56;

LEXINGTON      CLOUDY    50  46  84 CALM      29.93R
MCCOOK         CLOUDY    51  45  79 S8        29.89R
6HR MIN TEMP:  50; 6HR MAX TEMP:  57;

OGALLALA       CLOUDY    47  41  78 NE8       29.91R
$$

NEZ005>010-023>029-035>040-094-191300-
NORTH CENTRAL NEBRASKA

CITY           SKY/WX    TMP DP  RH WIND       PRES   REMARKS
VALENTINE      CLOUDY    47  36  65 CALM      29.96R
6HR MIN TEMP:  47; 6HR MAX TEMP:  62;

AINSWORTH      MOCLDY    50  40  67 N10       29.96R
BROKEN BOW     MOCLDY    49  44  83 S3        29.94R
6HR MIN TEMP:  48; 6HR MAX TEMP:  56;

O`NEILL        MOCLDY    53  42  66 S6        29.95R
ORD            PTCLDY    50  43  77 SE5       29.94R
6HR MIN TEMP:  49; 6HR MAX TEMP:  58;

THEDFORD       PTCLDY    52  40  64 N13       29.96R
$$

NEZ041-046>049-061>064-073>077-083>087-191300-
SOUTH CENTRAL NEBRASKA

CITY           SKY/WX    TMP DP  RH WIND       PRES   REMARKS
GRAND ISLAND   CLOUDY    53  42  66 S21G29    29.93F
6HR MIN TEMP:  53; 6HR MAX TEMP:  56;

AURORA         CLOUDY    53  42  67 S17G25    29.96R
HASTINGS       CLOUDY    53  43  68 S14       29.94S
6HR MIN TEMP:  53; 6HR MAX TEMP:  57;

HEBRON         MOCLDY    53  40  62 S15       30.01F
HOLDREGE       CLOUDY    52  46  77 S16       29.91S
KEARNEY *      CLOUDY    52  45  76 S20G26    29.91S
YORK           MOCLDY    54  41  62 S18       29.97S
$$

NEZ011>018-030>034-042>045-191300-
NORTHEAST NEBRASKA

CITY           SKY/WX    TMP DP  RH WIND       PRES   REMARKS
NORFOLK        MOCLDY    53  40  61 S13       29.98R
6HR MIN TEMP:  53; 6HR MAX TEMP:  58;

ALBION         MOCLDY    51  40  67 SW5       29.98R
BLAIR          PTCLDY    54  40  60 S16G23    30.03S
COLUMBUS *     MOCLDY    52  37  58 S15       29.97S
FREMONT        MOCLDY    53  41  64 SE18G24   30.00F
TEKAMAH        PTCLDY    54  41  61 S14       30.02F
6HR MIN TEMP:  52; 6HR MAX TEMP:  58;

$$

NEZ050>053-065>068-078-088>093-191300-
SOUTHEAST NEBRASKA

CITY           SKY/WX    TMP DP  RH WIND       PRES   REMARKS
LINCOLN        MOCLDY    54  40  59 S15       30.03S
6HR MIN TEMP:  53; 6HR MAX TEMP:  57;

OMAHA EPPLEY   MOCLDY    54  40  59 S17       30.06R
6HR MIN TEMP:  53; 6HR MAX TEMP:  56;

BEATRICE       MOCLDY    52  40  64 S12G17    30.05R
FALLS CITY     CLEAR     52  41  66 S10       30.10R
6HR MIN TEMP:  49; 6HR MAX TEMP:  53;

NEBRASKA CITY  CLEAR     51  40  67 S13       30.08S
PLATTSMOUTH    CLEAR     53  39  58 S16       30.06S
$$

NEZ044-045-051>053-067-191300-
OMAHA AREA

CITY           SKY/WX    TMP DP  RH WIND       PRES   REMARKS
OMAHA EPPLEY   MOCLDY    54  40  59 S17       30.06R
6HR MIN TEMP:  53; 6HR MAX TEMP:  56;

BLAIR          PTCLDY    54  40  60 S16G23    30.03S
FREMONT        MOCLDY    53  41  64 SE18G24   30.00F
MILLARD        PTCLDY    53  41  63 SE10      30.05S
OFFUTT AFB     CLEAR     52  42  70 SE12      30.07R
PLATTSMOUTH    CLEAR     53  39  58 S16       30.06S
WAHOO          FAIR      51  40  65 SE13      30.02S
$$



USA.gov is the U.S. government's official web portal to all federal, state and local government web resources and services.